New Philadelphia, OH

2:36 PM EST on January 18, 2017 (GMT -0500)
Clever

Weather History for KPHD - May, 2013

Change the Weather History Date:

Wednesday, May 29, 2013

  Actual Average Record
Temperature  
Mean Temperature 76 °F 64 °F  
Max Temperature 86 °F 76 °F 90 °F (1977)
Min Temperature 66 °F 52 °F 35 °F (1964)
Degree Days  
Heating Degree Days 0 4  
Month to date heating degree days 145 188  
Since 1 July heating degree days 5585 5603  
Cooling Degree Days 11 2  
Month to date cooling degree days 66 29  
Year to date cooling degree days 78 36  
Growing Degree Days 26 (Base 50)    
Moisture  
Dew Point 59 °F    
Average Humidity 59    
Maximum Humidity 81    
Minimum Humidity 37    
Precipitation  
Precipitation 0.00 in 0.14 in 1.08 in (1990)
Month to date precipitation 1.85 3.86  
Year to date precipitation 9.92 15.29  
Sea Level Pressure  
Sea Level Pressure 30.05 in    
Wind  
Wind Speed 6 mph (SSW)    
Max Wind Speed 15 mph    
Max Gust Speed 23 mph    
Visibility 10 miles    
Events      
T = Trace of Precipitation, MM = Missing Value Source: NWS Daily Summary

Daily Weather History Graph

Daily Weather History Graph

Search for Another Location

Airport or City:

Trip Planner

Search our weather history database for the weather conditions in past years. The results will help you decide how hot, cold, wet, or windy it might be!

Date:

Astronomy

May. 29, 2013 Rise Set
Actual Time 5:58 AM EDT 8:47 PM EDT
Civil Twilight 5:26 AM EDT 9:20 PM EDT
Nautical Twilight 4:46 AM EDT 10:00 PM EDT
Astronomical Twilight 3:59 AM EDT 10:47 PM EDT
Moon 12:09 AM EDT (5/29) 10:56 AM EDT (5/29)
Length of Visible Light 15h 53m
Length of Day
14h 49m
Waning Gibbous, 73% of the Moon is Illuminated
May 29
Waning Gibbous
May 31
Last Quarter
Jun 8
New
Jun 16
First Quarter
Jun 23
Full

Hourly Weather History & Observations

Time (EDT) Temp. Heat Index Dew Point Humidity Pressure Visibility Wind Dir Wind Speed Gust Speed Precip Events Conditions
12:53 AM 73.0 °F - 59.0 °F 61% 30.00 in 10.0 mi SSW 3.5 mph - N/A   Mostly Cloudy
1:53 AM 73.9 °F - 57.9 °F 57% 30.02 in 10.0 mi Variable 6.9 mph 16.1 mph N/A   Mostly Cloudy
2:53 AM 72.0 °F - 57.9 °F 61% 30.00 in 10.0 mi SSW 5.8 mph - N/A   Clear
3:53 AM 72.0 °F - 57.0 °F 59% 30.00 in 10.0 mi Variable 5.8 mph - N/A   Clear
4:53 AM 71.1 °F - 57.0 °F 61% 30.01 in 10.0 mi SSW 6.9 mph - N/A   Clear
5:53 AM 66.0 °F - 57.9 °F 75% 30.03 in 10.0 mi SSE 3.5 mph - N/A   Clear
6:53 AM 71.1 °F - 57.9 °F 63% 30.04 in 10.0 mi SSW 4.6 mph - N/A   Clear
7:53 AM 72.0 °F - 57.9 °F 61% 30.05 in 10.0 mi SW 9.2 mph - N/A   Overcast
8:53 AM 73.0 °F - 59.0 °F 61% 30.06 in 10.0 mi SW 8.1 mph - N/A   Clear
9:53 AM 75.9 °F - 60.1 °F 58% 30.05 in 10.0 mi SW 9.2 mph - N/A   Clear
10:53 AM 77.0 °F - 60.1 °F 56% 30.06 in 10.0 mi SW 8.1 mph - N/A   Clear
11:53 AM 78.1 °F - 60.1 °F 54% 30.06 in 10.0 mi SSW 8.1 mph - N/A   Clear
12:53 PM 82.0 °F 82.4 °F 60.1 °F 47% 30.06 in 10.0 mi SSW 10.4 mph 20.7 mph N/A   Clear
1:53 PM 84.9 °F 85.0 °F 61.0 °F 44% 30.06 in 10.0 mi Variable 6.9 mph - N/A   Clear
2:53 PM 84.9 °F 85.0 °F 61.0 °F 44% 30.06 in 10.0 mi Variable 5.8 mph - N/A   Partly Cloudy
3:53 PM 86.0 °F 85.7 °F 60.1 °F 41% 30.06 in 10.0 mi SW 10.4 mph 23.0 mph N/A   Scattered Clouds
4:53 PM 84.0 °F 83.8 °F 59.0 °F 43% 30.05 in 10.0 mi SW 11.5 mph 18.4 mph N/A   Scattered Clouds
5:53 PM 84.9 °F 83.9 °F 57.0 °F 38% 30.05 in 10.0 mi SSW 11.5 mph 19.6 mph N/A   Partly Cloudy
6:53 PM 84.0 °F 83.0 °F 55.9 °F 38% 30.05 in 10.0 mi SSW 4.6 mph - N/A   Clear
7:53 PM 82.0 °F 82.1 °F 59.0 °F 45% 30.05 in 10.0 mi South 5.8 mph - N/A   Clear
8:53 PM 78.1 °F - 60.1 °F 54% 30.05 in 10.0 mi South 3.5 mph - N/A   Clear
9:53 PM 73.9 °F - 61.0 °F 64% 30.05 in 10.0 mi Calm Calm - N/A   Clear
10:53 PM 69.1 °F - 62.1 °F 78% 30.07 in 10.0 mi SE 4.6 mph - N/A   Clear
11:53 PM 68.0 °F - 62.1 °F 81% 30.09 in 10.0 mi Calm Calm - N/A   Clear